RA73750 ULAA-UTAA

Flight info

Callsign RA73750
Flight time 3h 54m
Altitude 47000
Route ODESI L93 OKAMO L991 MULTA M875 MILSO M161 LATNU N167 ADOBI/N0496F470 B359 PODOK
Aircraft C750/M-SABDGRWY/H

Departure

Time 2026-04-23 16:57
Airport Talagi Airport (ULAA)

Arrival

Time 2026-04-23 20:51
Airport Ashgabat International Airport (UTAA)
Time Latitude Longitude Altitude Speed Heading
2026-04-23 16:37 64.59794 40.71160 37 ft 0 kts
2026-04-23 16:50 64.59795 40.71160 37 ft 2 kts
2026-04-23 16:51 64.59825 40.71168 37 ft 6 kts 12°
2026-04-23 16:51 64.59837 40.71247 37 ft 6 kts 94°
2026-04-23 16:51 64.59832 40.71362 37 ft 8 kts 96°
2026-04-23 16:51 64.59824 40.71506 37 ft 10 kts 98°
2026-04-23 16:52 64.59816 40.71677 37 ft 12 kts 95°
2026-04-23 16:52 64.59808 40.71875 37 ft 13 kts 95°
2026-04-23 16:52 64.59795 40.72104 37 ft 15 kts 97°
2026-04-23 16:52 64.59783 40.72363 37 ft 17 kts 96°
2026-04-23 16:53 64.59770 40.72650 37 ft 19 kts 96°
2026-04-23 16:53 64.59754 40.72961 37 ft 20 kts 96°
2026-04-23 16:53 64.59738 40.73291 37 ft 19 kts 97°
2026-04-23 16:53 64.59725 40.73534 37 ft 11 kts 97°
2026-04-23 16:54 64.59715 40.73700 37 ft 10 kts 103°
2026-04-23 16:54 64.59700 40.73864 37 ft 11 kts 94°
2026-04-23 16:54 64.59693 40.74058 37 ft 13 kts 94°
2026-04-23 16:54 64.59732 40.74186 37 ft 11 kts
2026-04-23 16:55 64.59818 40.74211 36 ft 13 kts
2026-04-23 16:55 64.59890 40.74228 33 ft 8 kts 347°
2026-04-23 16:55 64.59908 40.74104 32 ft 10 kts 273°
2026-04-23 16:55 64.59916 40.73915 31 ft 13 kts 276°
2026-04-23 16:56 64.59928 40.73650 31 ft 24 kts 276°
2026-04-23 16:56 64.59976 40.72691 34 ft 102 kts 276°
2026-04-23 16:56 64.60081 40.70604 92 ft 145 kts 279°
2026-04-23 16:56 64.60191 40.68249 460 ft 148 kts 279°
2026-04-23 16:57 64.60318 40.65875 1010 ft 150 kts 288°
2026-04-23 16:57 64.60832 40.63758 1477 ft 157 kts 312°
2026-04-23 16:57 64.61730 40.62213 1916 ft 167 kts 335°
2026-04-23 16:57 64.62922 40.61721 2352 ft 185 kts
2026-04-23 16:58 64.64209 40.62771 2802 ft 211 kts 31°
2026-04-23 16:58 64.65165 40.65683 3024 ft 250 kts 66°
2026-04-23 16:58 64.65142 40.69823 3589 ft 269 kts 107°
2026-04-23 16:58 64.64025 40.73301 4463 ft 273 kts 139°
2026-04-23 16:59 64.62399 40.75632 5290 ft 275 kts 152°
2026-04-23 16:59 64.60703 40.77774 5973 ft 279 kts 149°
2026-04-23 16:59 64.59062 40.80221 6667 ft 281 kts 145°
2026-04-23 16:59 64.57456 40.82830 7393 ft 283 kts 144°
2026-04-23 17:00 64.55808 40.85390 8172 ft 286 kts 146°
2026-04-23 17:00 64.54126 40.87917 8967 ft 288 kts 147°
2026-04-23 17:00 64.52435 40.90489 9766 ft 291 kts 146°
2026-04-23 17:00 64.50710 40.93140 10093 ft 313 kts 146°
2026-04-23 17:01 64.48813 40.96040 10167 ft 340 kts 147°
2026-04-23 17:01 64.46772 40.99138 10577 ft 352 kts 147°
2026-04-23 17:01 64.44724 41.02245 11401 ft 353 kts 147°
2026-04-23 17:01 64.42649 41.05394 12073 ft 358 kts 147°
2026-04-23 17:02 64.41262 41.07495 12553 ft 360 kts 147°
2026-04-23 17:02 64.38436 41.11764 13478 ft 365 kts 148°
2026-04-23 17:02 64.36304 41.14979 14112 ft 367 kts 148°
2026-04-23 17:02 64.34177 41.18181 14726 ft 370 kts 148°
2026-04-23 17:03 64.32006 41.21442 15343 ft 372 kts 148°
2026-04-23 17:03 64.29824 41.24713 15994 ft 375 kts 148°
2026-04-23 17:03 64.27632 41.27994 16646 ft 377 kts 148°
2026-04-23 17:03 64.25447 41.31257 17322 ft 379 kts 148°
2026-04-23 17:04 64.23230 41.34561 17979 ft 381 kts 148°
2026-04-23 17:04 64.20993 41.37889 18542 ft 384 kts 148°
2026-04-23 17:04 64.18734 41.41243 19114 ft 388 kts 148°
2026-04-23 17:04 64.16456 41.44620 19682 ft 392 kts 148°
2026-04-23 17:05 64.14154 41.48024 20264 ft 395 kts 148°
2026-04-23 17:05 64.11825 41.51462 20849 ft 399 kts 148°
2026-04-23 17:05 64.09487 41.54906 21421 ft 402 kts 148°
2026-04-23 17:05 64.07143 41.58350 21998 ft 406 kts 148°
2026-04-23 17:06 64.04750 41.61861 22578 ft 409 kts 149°
2026-04-23 17:06 64.02333 41.65400 23159 ft 413 kts 148°
2026-04-23 17:06 63.99898 41.68959 23613 ft 417 kts 149°
2026-04-23 17:06 63.97444 41.72535 24070 ft 421 kts 149°
2026-04-23 17:07 63.94990 41.76105 24514 ft 425 kts 148°
2026-04-23 17:07 63.92478 41.79751 24957 ft 429 kts 149°
2026-04-23 17:07 63.89944 41.83423 25430 ft 433 kts 149°
2026-04-23 17:07 63.87387 41.87119 25900 ft 437 kts 148°
2026-04-23 17:08 63.84826 41.90939 26333 ft 442 kts 146°
2026-04-23 17:08 63.82281 41.94891 26821 ft 446 kts 147°
2026-04-23 17:08 63.79723 41.98791 27271 ft 450 kts 147°
2026-04-23 17:08 63.77113 42.02757 27744 ft 454 kts 147°
2026-04-23 17:09 63.74480 42.06792 28205 ft 459 kts 146°
2026-04-23 17:09 63.71816 42.10875 28658 ft 463 kts 147°
2026-04-23 17:09 63.69132 42.14954 29111 ft 468 kts 147°
2026-04-23 17:09 63.66407 42.19075 29535 ft 473 kts 146°
2026-04-23 17:10 63.63696 42.23180 29909 ft 477 kts 146°
2026-04-23 17:10 63.60932 42.27365 30296 ft 480 kts 146°
2026-04-23 17:10 63.58144 42.31566 30745 ft 481 kts 146°
2026-04-23 17:10 63.55364 42.35744 31315 ft 480 kts 146°
2026-04-23 17:11 63.52593 42.39912 31835 ft 480 kts 146°
2026-04-23 17:11 63.49817 42.44081 32347 ft 480 kts 146°
2026-04-23 17:11 63.47033 42.48246 32881 ft 480 kts 146°
2026-04-23 17:11 63.44245 42.52402 33413 ft 480 kts 146°
2026-04-23 17:12 63.42399 42.55150 33718 ft 480 kts 146°
2026-04-23 17:12 63.38683 42.60676 34319 ft 480 kts 146°
2026-04-23 17:12 63.35937 42.64746 34776 ft 479 kts 146°
2026-04-23 17:12 63.33146 42.68870 35239 ft 479 kts 146°
2026-04-23 17:13 63.30370 42.72963 35684 ft 479 kts 146°
2026-04-23 17:13 63.27592 42.77052 36157 ft 478 kts 146°
2026-04-23 17:13 63.24813 42.81132 36628 ft 478 kts 146°
2026-04-23 17:13 63.22037 42.85197 37102 ft 477 kts 146°
2026-04-23 17:14 63.19298 42.89199 37565 ft 477 kts 146°
2026-04-23 17:14 63.16515 42.93256 38029 ft 477 kts 146°
2026-04-23 17:14 63.13734 42.97300 38439 ft 477 kts 146°
2026-04-23 17:14 63.10975 43.01304 38812 ft 476 kts 146°
2026-04-23 17:15 63.08194 43.05329 39178 ft 476 kts 146°
2026-04-23 17:15 63.05448 43.09295 39541 ft 476 kts 146°
2026-04-23 17:15 63.02672 43.13295 39897 ft 476 kts 147°
2026-04-23 17:15 62.99888 43.17298 40251 ft 477 kts 147°
2026-04-23 17:16 62.98048 43.19937 40496 ft 476 kts 147°
2026-04-23 17:16 62.95270 43.23916 40874 ft 476 kts 147°
2026-04-23 17:16 62.92488 43.27891 41227 ft 476 kts 147°
2026-04-23 17:16 62.89701 43.31865 41580 ft 476 kts 147°
2026-04-23 17:17 62.86922 43.35816 41920 ft 476 kts 147°
2026-04-23 17:17 62.84175 43.39715 42254 ft 476 kts 147°
2026-04-23 17:17 62.81388 43.43661 42585 ft 476 kts 147°
2026-04-23 17:17 62.78605 43.47591 42922 ft 476 kts 147°
2026-04-23 17:18 62.73025 43.55447 43556 ft 476 kts 147°
2026-04-23 17:18 62.70276 43.59303 43844 ft 476 kts 147°
2026-04-23 17:18 62.67488 43.63206 44077 ft 476 kts 147°
2026-04-23 17:19 62.64701 43.67099 44246 ft 475 kts 147°
2026-04-23 17:19 62.61911 43.70986 44383 ft 476 kts 147°
2026-04-23 17:19 62.59146 43.74940 44518 ft 475 kts 144°
2026-04-23 17:19 62.56446 43.79093 44660 ft 475 kts 144°
2026-04-23 17:20 62.53748 43.83242 44804 ft 475 kts 144°
2026-04-23 17:20 62.48327 43.91468 45058 ft 475 kts 145°
2026-04-23 17:21 62.42942 43.99646 45299 ft 475 kts 145°
2026-04-23 17:21 62.34803 44.11907 45632 ft 475 kts 145°
2026-04-23 17:22 62.32090 44.15982 45735 ft 474 kts 145°
2026-04-23 17:22 62.26668 44.24091 45908 ft 475 kts 145°
2026-04-23 17:23 62.21283 44.32108 46088 ft 474 kts 145°
2026-04-23 17:23 62.18566 44.36142 46163 ft 474 kts 145°
2026-04-23 17:23 62.13127 44.44185 46303 ft 475 kts 145°
2026-04-23 17:24 62.10409 44.48199 46360 ft 475 kts 145°
2026-04-23 17:24 62.02272 44.60175 46587 ft 474 kts 146°
2026-04-23 17:25 61.96829 44.68138 46706 ft 475 kts 146°
2026-04-23 17:25 61.94100 44.72118 46705 ft 476 kts 146°
2026-04-23 17:26 61.83116 44.88048 46706 ft 481 kts 146°
2026-04-23 17:27 61.74768 45.00059 46705 ft 485 kts 146°
2026-04-23 17:27 61.69251 45.08150 46687 ft 487 kts 142°
2026-04-23 17:28 61.64060 45.17364 46704 ft 489 kts 140°
2026-04-23 17:28 61.58797 45.26527 46695 ft 492 kts 141°
2026-04-23 17:29 61.53505 45.35729 46696 ft 494 kts 140°
2026-04-23 17:30 61.45551 45.49474 46694 ft 497 kts 141°
2026-04-23 17:30 61.37512 45.63313 46690 ft 500 kts 141°
2026-04-23 17:31 61.32136 45.72476 46694 ft 502 kts 141°
2026-04-23 17:31 61.26716 45.81703 46697 ft 504 kts 141°
2026-04-23 17:32 61.21269 45.90913 46687 ft 505 kts 141°
2026-04-23 17:32 61.15827 46.00086 46678 ft 507 kts 141°
2026-04-23 17:33 61.10336 46.09289 46675 ft 508 kts 141°
2026-04-23 17:33 61.05085 46.18056 46672 ft 509 kts 141°
2026-04-23 17:34 60.99563 46.27237 46666 ft 510 kts 141°
2026-04-23 17:35 60.91284 46.40935 46661 ft 510 kts 141°
2026-04-23 17:35 60.82987 46.54566 46657 ft 511 kts 142°
2026-04-23 17:36 60.77423 46.63653 46652 ft 511 kts 142°
2026-04-23 17:36 60.71872 46.72703 46642 ft 511 kts 142°
2026-04-23 17:37 60.66292 46.81761 46646 ft 511 kts 142°
2026-04-23 17:38 60.57952 46.95217 46641 ft 511 kts 142°
2026-04-23 17:38 60.52368 47.04174 46634 ft 511 kts 142°
2026-04-23 17:39 60.46772 47.13113 46633 ft 511 kts 142°
2026-04-23 17:39 60.41173 47.22016 46640 ft 511 kts 142°
2026-04-23 17:40 60.35578 47.30872 46641 ft 511 kts 142°
2026-04-23 17:40 60.29969 47.39711 46643 ft 511 kts 142°
2026-04-23 17:41 60.24381 47.48477 46646 ft 511 kts 142°
2026-04-23 17:41 60.15634 47.60743 46639 ft 510 kts 149°
2026-04-23 17:42 60.06659 47.72268 46655 ft 510 kts 148°
2026-04-23 17:43 60.00691 47.79837 46667 ft 510 kts 148°
2026-04-23 17:43 59.94709 47.87473 46659 ft 510 kts 148°
2026-04-23 17:44 59.88713 47.95087 46665 ft 510 kts 148°
2026-04-23 17:44 59.79753 48.06412 46671 ft 510 kts 148°
2026-04-23 17:45 59.70744 48.17712 46675 ft 510 kts 148°
2026-04-23 17:46 59.61747 48.28935 46677 ft 510 kts 148°
2026-04-23 17:46 59.55738 48.36398 46677 ft 510 kts 148°
2026-04-23 17:47 59.49730 48.43867 46677 ft 510 kts 148°
2026-04-23 17:48 59.40749 48.54944 46680 ft 510 kts 149°
2026-04-23 17:48 59.34729 48.62337 46675 ft 510 kts 149°
2026-04-23 17:49 59.28743 48.69652 46689 ft 510 kts 149°
2026-04-23 17:49 59.22701 48.77007 46688 ft 510 kts 149°
2026-04-23 17:50 59.16484 48.83612 46698 ft 508 kts 155°
2026-04-23 17:50 59.06987 48.92605 46705 ft 508 kts 154°
2026-04-23 17:51 59.00634 48.98654 46697 ft 508 kts 155°
2026-04-23 17:52 58.91101 49.07685 46700 ft 508 kts 155°
2026-04-23 17:52 58.81583 49.16519 46703 ft 508 kts 155°
2026-04-23 17:53 58.72004 49.25350 46708 ft 508 kts 155°
2026-04-23 17:54 58.65647 49.31067 46704 ft 507 kts 156°
2026-04-23 17:54 58.56044 49.39717 46703 ft 507 kts 156°
2026-04-23 17:55 58.46481 49.48232 46705 ft 507 kts 156°
2026-04-23 17:56 58.40088 49.53911 46707 ft 507 kts 156°
2026-04-23 17:56 58.30483 49.62394 46705 ft 507 kts 156°
2026-04-23 17:57 58.24075 49.68022 46709 ft 506 kts 156°
2026-04-23 17:58 58.14496 49.76400 46717 ft 506 kts 156°
2026-04-23 17:58 58.08083 49.81985 46720 ft 506 kts 156°
2026-04-23 17:59 58.01708 49.87541 46720 ft 506 kts 156°
2026-04-23 17:59 57.95299 49.93088 46722 ft 506 kts 156°
2026-04-23 18:00 57.88905 49.98610 46729 ft 506 kts 157°
2026-04-23 18:00 57.82857 50.05195 46717 ft 508 kts 143°
2026-04-23 18:01 57.77490 50.13848 46742 ft 508 kts 141°
2026-04-23 18:01 57.71961 50.22154 46740 ft 508 kts 143°
2026-04-23 18:02 57.67422 50.29141 46741 ft 508 kts 141°
2026-04-23 18:02 57.62190 50.37182 46730 ft 508 kts 143°
2026-04-23 18:03 57.55749 50.46914 46739 ft 508 kts 142°
2026-04-23 18:03 57.50294 50.55195 46742 ft 508 kts 143°
2026-04-23 18:04 57.44789 50.63457 46746 ft 508 kts 142°
2026-04-23 18:04 57.40214 50.70353 46729 ft 509 kts 143°
2026-04-23 18:04 57.37447 50.74480 46623 ft 511 kts 143°
2026-04-23 18:05 57.34669 50.78620 46547 ft 512 kts 143°
2026-04-23 18:05 57.29125 50.86893 46558 ft 511 kts 143°
2026-04-23 18:06 57.23579 50.95111 46561 ft 511 kts 143°
2026-04-23 18:06 57.18033 51.03312 46557 ft 510 kts 143°
2026-04-23 18:07 57.12516 51.11428 46562 ft 510 kts 143°
2026-04-23 18:07 57.06951 51.19588 46560 ft 510 kts 143°
2026-04-23 18:08 57.01379 51.27721 46558 ft 510 kts 143°
2026-04-23 18:08 56.95850 51.35762 46563 ft 510 kts 143°
2026-04-23 18:09 56.90273 51.43840 46565 ft 510 kts 143°
2026-04-23 18:09 56.84705 51.51874 46565 ft 510 kts 143°
2026-04-23 18:10 56.79161 51.59850 46572 ft 510 kts 143°
2026-04-23 18:10 56.73589 51.67845 46573 ft 510 kts 143°
2026-04-23 18:11 56.68002 51.75823 46577 ft 510 kts 144°
2026-04-23 18:11 56.62417 51.83773 46573 ft 510 kts 144°
2026-04-23 18:12 56.56839 51.91679 46583 ft 510 kts 144°
2026-04-23 18:12 56.51347 51.99434 46594 ft 509 kts 144°
2026-04-23 18:13 56.46695 52.05982 46590 ft 509 kts 144°
2026-04-23 18:13 56.46659 52.06032 46590 ft 509 kts 144°
2026-04-23 18:14 56.41057 52.13887 46592 ft 510 kts 144°
2026-04-23 18:14 56.35445 52.21732 46598 ft 510 kts 144°
2026-04-23 18:15 56.29865 52.29506 46596 ft 510 kts 144°
2026-04-23 18:15 56.23994 52.36548 46608 ft 506 kts 153°
2026-04-23 18:16 56.17687 52.42162 46610 ft 505 kts 155°
2026-04-23 18:16 56.11572 52.48457 46617 ft 507 kts 151°
2026-04-23 18:17 56.02292 52.57488 46615 ft 506 kts 153°
2026-04-23 18:17 55.96161 52.63695 46615 ft 506 kts 153°
2026-04-23 18:18 55.89998 52.69644 46621 ft 506 kts 153°
2026-04-23 18:18 55.83826 52.75743 46622 ft 506 kts 153°
2026-04-23 18:19 55.77671 52.81711 46618 ft 506 kts 153°
2026-04-23 18:19 55.71490 52.87732 46615 ft 506 kts 153°
2026-04-23 18:20 55.65291 52.93725 46623 ft 506 kts 153°
2026-04-23 18:20 55.59291 52.99513 46623 ft 507 kts 153°
2026-04-23 18:21 55.53323 53.05249 46632 ft 506 kts 154°
2026-04-23 18:21 55.47317 53.10998 46631 ft 507 kts 153°
2026-04-23 18:22 55.41280 53.16763 46643 ft 506 kts 154°
2026-04-23 18:22 55.35202 53.22540 46647 ft 507 kts 154°
2026-04-23 18:23 55.26098 53.31161 46645 ft 507 kts 154°
2026-04-23 18:24 55.17053 53.39680 46653 ft 507 kts 154°
2026-04-23 18:25 55.07958 53.48202 46661 ft 507 kts 154°
2026-04-23 18:25 55.01795 53.53951 46666 ft 507 kts 154°
2026-04-23 18:26 54.95739 53.59582 46672 ft 507 kts 154°
2026-04-23 18:26 54.89739 53.65140 46672 ft 507 kts 154°
2026-04-23 18:27 54.83638 53.70773 46691 ft 507 kts 154°
2026-04-23 18:27 54.77533 53.76391 46685 ft 507 kts 154°
2026-04-23 18:28 54.71493 53.81929 46690 ft 506 kts 154°
2026-04-23 18:28 54.65435 53.87465 46696 ft 506 kts 154°
2026-04-23 18:29 54.59380 53.92980 46697 ft 506 kts 154°
2026-04-23 18:29 54.53264 53.98531 46702 ft 506 kts 155°
2026-04-23 18:30 54.47114 54.04094 46709 ft 506 kts 155°
2026-04-23 18:30 54.41119 54.09499 46710 ft 506 kts 155°
2026-04-23 18:31 54.35072 54.14932 46723 ft 506 kts 155°
2026-04-23 18:31 54.28919 54.20442 46722 ft 506 kts 155°
2026-04-23 18:32 54.22900 54.25814 46737 ft 505 kts 155°
2026-04-23 18:32 54.16778 54.31260 46732 ft 505 kts 155°
2026-04-23 18:33 54.10719 54.36631 46732 ft 505 kts 155°
2026-04-23 18:33 54.04623 54.42018 46751 ft 505 kts 155°
2026-04-23 18:34 53.98471 54.47436 46759 ft 505 kts 155°
2026-04-23 18:34 53.92447 54.52723 46753 ft 505 kts 155°
2026-04-23 18:35 53.86402 54.58012 46749 ft 505 kts 155°
2026-04-23 18:35 53.80250 54.63376 46760 ft 505 kts 155°
2026-04-23 18:36 53.74095 54.68726 46768 ft 505 kts 155°
2026-04-23 18:36 53.68024 54.73984 46773 ft 504 kts 155°
2026-04-23 18:37 53.61963 54.79218 46771 ft 504 kts 155°
2026-04-23 18:37 53.55770 54.84547 46777 ft 504 kts 156°
2026-04-23 18:38 53.49687 54.89765 46784 ft 504 kts 156°
2026-04-23 18:38 53.43613 54.94958 46778 ft 504 kts 156°
2026-04-23 18:39 53.37467 55.00196 46791 ft 504 kts 156°
2026-04-23 18:39 53.31393 55.05356 46787 ft 504 kts 156°
2026-04-23 18:40 53.25292 55.10522 46792 ft 504 kts 156°
2026-04-23 18:40 53.19110 55.15739 46797 ft 504 kts 156°
2026-04-23 18:41 53.13092 55.20802 46800 ft 504 kts 156°
2026-04-23 18:41 53.06935 55.25966 46804 ft 503 kts 156°
2026-04-23 18:42 53.00818 55.31079 46800 ft 503 kts 156°
2026-04-23 18:42 52.94690 55.36185 46798 ft 503 kts 156°
2026-04-23 18:43 52.88654 55.41199 46815 ft 503 kts 156°
2026-04-23 18:43 52.82517 55.46280 46809 ft 504 kts 156°
2026-04-23 18:44 52.76363 55.51359 46810 ft 504 kts 156°
2026-04-23 18:44 52.70266 55.56376 46812 ft 504 kts 156°
2026-04-23 18:45 52.64170 55.61376 46809 ft 504 kts 156°
2026-04-23 18:45 52.57871 55.66526 46813 ft 504 kts 156°
2026-04-23 18:46 52.51590 55.71645 46826 ft 504 kts 156°
2026-04-23 18:46 52.45294 55.76760 46826 ft 504 kts 157°
2026-04-23 18:47 52.39042 55.81821 46822 ft 504 kts 157°
2026-04-23 18:47 52.32748 55.86902 46818 ft 503 kts 157°
2026-04-23 18:48 52.26451 55.91968 46821 ft 504 kts 157°
2026-04-23 18:48 52.20197 55.96985 46824 ft 503 kts 157°
2026-04-23 18:49 52.13898 56.02021 46825 ft 503 kts 157°
2026-04-23 18:49 52.07608 56.07034 46829 ft 503 kts 157°
2026-04-23 18:50 52.03419 56.10364 46827 ft 503 kts 157°
2026-04-23 18:50 51.96100 56.16165 46830 ft 503 kts 157°
2026-04-23 18:51 51.89809 56.21134 46846 ft 503 kts 157°
2026-04-23 18:51 51.83692 56.25951 46841 ft 503 kts 157°
2026-04-23 18:52 51.77476 56.30832 46848 ft 503 kts 157°
2026-04-23 18:52 51.71384 56.35599 46853 ft 503 kts 157°
2026-04-23 18:53 51.65200 56.40425 46856 ft 503 kts 158°
2026-04-23 18:53 51.59066 56.45196 46856 ft 503 kts 158°
2026-04-23 18:54 51.52927 56.49959 46863 ft 503 kts 158°
2026-04-23 18:54 51.46801 56.54695 46865 ft 503 kts 158°
2026-04-23 18:55 51.40674 56.59419 46870 ft 503 kts 158°
2026-04-23 18:55 51.34500 56.64165 46878 ft 502 kts 158°
2026-04-23 18:56 51.28140 56.69038 46881 ft 502 kts 158°
2026-04-23 18:56 51.21822 56.73865 46890 ft 502 kts 158°
2026-04-23 18:57 51.15539 56.78650 46890 ft 502 kts 158°
2026-04-23 18:57 51.09224 56.83446 46888 ft 502 kts 158°
2026-04-23 18:58 51.02897 56.88268 46891 ft 503 kts 158°
2026-04-23 18:58 50.96630 56.93074 46895 ft 502 kts 158°
2026-04-23 18:59 50.90316 56.97866 46897 ft 503 kts 158°
2026-04-23 18:59 50.84010 57.02663 46904 ft 503 kts 158°
2026-04-23 19:00 50.77734 57.07406 46903 ft 502 kts 158°
2026-04-23 19:00 50.71411 57.12180 46901 ft 502 kts 158°
2026-04-23 19:01 50.65263 57.16802 46900 ft 502 kts 158°
2026-04-23 19:01 50.59146 57.21392 46906 ft 502 kts 158°
2026-04-23 19:02 50.53010 57.25981 46908 ft 502 kts 158°
2026-04-23 19:02 50.46827 57.30591 46906 ft 503 kts 158°
2026-04-23 19:03 50.40733 57.35123 46908 ft 502 kts 159°
2026-04-23 19:03 50.34593 57.39676 46914 ft 502 kts 159°
2026-04-23 19:04 50.28456 57.44212 46905 ft 503 kts 159°
2026-04-23 19:04 50.22323 57.48734 46910 ft 503 kts 159°
2026-04-23 19:05 50.16065 57.53333 46906 ft 503 kts 159°
2026-04-23 19:05 50.09868 57.57876 46918 ft 503 kts 159°
2026-04-23 19:06 50.03691 57.62390 46909 ft 503 kts 159°
2026-04-23 19:06 49.97477 57.66919 46926 ft 504 kts 159°
2026-04-23 19:07 49.91312 57.71399 46920 ft 504 kts 159°
2026-04-23 19:07 49.85097 57.75902 46925 ft 504 kts 159°
2026-04-23 19:08 49.78970 57.80329 46922 ft 504 kts 159°
2026-04-23 19:08 49.72699 57.84848 46928 ft 503 kts 159°
2026-04-23 19:09 49.66598 57.89177 46924 ft 503 kts 160°
2026-04-23 19:09 49.60354 57.93517 46922 ft 503 kts 160°
2026-04-23 19:10 49.54097 57.97927 46923 ft 503 kts 160°
2026-04-23 19:10 49.47880 58.02237 46935 ft 504 kts 160°
2026-04-23 19:11 49.41568 58.06646 46924 ft 504 kts 160°
2026-04-23 19:11 49.35405 58.10908 46921 ft 504 kts 160°
2026-04-23 19:12 49.30178 58.14532 46925 ft 504 kts 160°
2026-04-23 19:12 49.22923 58.19532 46925 ft 504 kts 160°
2026-04-23 19:13 49.16653 58.23849 46925 ft 504 kts 160°
2026-04-23 19:13 49.10463 58.28093 46930 ft 504 kts 160°
2026-04-23 19:14 49.04095 58.32449 46927 ft 504 kts 160°
2026-04-23 19:14 48.97961 58.36633 46925 ft 503 kts 160°
2026-04-23 19:15 48.91729 58.40872 46927 ft 503 kts 160°
2026-04-23 19:15 48.85526 58.45081 46934 ft 503 kts 160°
2026-04-23 19:16 48.79216 58.49349 46928 ft 502 kts 160°
2026-04-23 19:16 48.72961 58.53570 46924 ft 502 kts 160°
2026-04-23 19:17 48.63630 58.59844 46937 ft 502 kts 160°
2026-04-23 19:17 48.57387 58.64028 46927 ft 501 kts 161°
2026-04-23 19:18 48.51178 58.68176 46914 ft 501 kts 161°
2026-04-23 19:18 48.44937 58.72336 46917 ft 501 kts 161°
2026-04-23 19:19 48.35571 58.78558 46914 ft 501 kts 161°
2026-04-23 19:20 48.26232 58.84736 46919 ft 500 kts 161°
2026-04-23 19:20 48.20043 58.88817 46913 ft 500 kts 161°
2026-04-23 19:21 48.10709 58.94951 46922 ft 500 kts 161°
2026-04-23 19:22 48.04711 58.98881 46917 ft 500 kts 160°
2026-04-23 19:22 47.95330 59.05005 46925 ft 500 kts 161°
2026-04-23 19:23 47.89058 59.09087 46918 ft 500 kts 161°
2026-04-23 19:24 47.79705 59.15154 46932 ft 500 kts 161°
2026-04-23 19:24 47.70467 59.21167 46909 ft 501 kts 159°
2026-04-23 19:25 47.58359 59.29810 46923 ft 501 kts 159°
2026-04-23 19:26 47.49159 59.36359 46931 ft 501 kts 159°
2026-04-23 19:27 47.33768 59.47223 46929 ft 501 kts 159°
2026-04-23 19:28 47.21528 59.55820 46931 ft 501 kts 159°
2026-04-23 19:29 47.12312 59.62264 46941 ft 501 kts 159°
2026-04-23 19:30 47.03147 59.68645 46944 ft 500 kts 159°
2026-04-23 19:31 46.93926 59.75041 46943 ft 500 kts 159°
2026-04-23 19:31 46.87798 59.79279 46941 ft 500 kts 159°
2026-04-23 19:32 46.81630 59.83532 46942 ft 500 kts 159°
2026-04-23 19:32 46.75512 59.87742 46942 ft 500 kts 159°
2026-04-23 19:33 46.69341 59.91976 46948 ft 500 kts 159°
2026-04-23 19:33 46.60205 59.98227 46946 ft 500 kts 159°
2026-04-23 19:34 46.54035 60.02434 46951 ft 500 kts 159°
2026-04-23 19:35 46.44750 60.08746 46942 ft 500 kts 159°
2026-04-23 19:35 46.38624 60.12897 46945 ft 500 kts 159°
2026-04-23 19:36 46.32555 60.17000 46946 ft 500 kts 159°
2026-04-23 19:36 46.27401 60.20476 46950 ft 500 kts 159°
2026-04-23 19:37 46.21274 60.24599 46953 ft 500 kts 159°
2026-04-23 19:37 46.15104 60.28740 46947 ft 500 kts 159°
2026-04-23 19:38 46.08980 60.32841 46954 ft 500 kts 159°
2026-04-23 19:38 46.02810 60.36962 46957 ft 500 kts 159°
2026-04-23 19:39 45.96631 60.41079 46951 ft 500 kts 159°
2026-04-23 19:39 45.90546 60.45124 46958 ft 500 kts 159°
2026-04-23 19:40 45.84313 60.49256 46964 ft 500 kts 159°
2026-04-23 19:40 45.78116 60.53355 46958 ft 500 kts 160°
2026-04-23 19:41 45.71961 60.57416 46959 ft 500 kts 160°
2026-04-23 19:41 45.65826 60.61453 46960 ft 500 kts 160°
2026-04-23 19:42 45.59682 60.65488 46962 ft 500 kts 160°
2026-04-23 19:42 45.53517 60.69525 46961 ft 502 kts 160°
2026-04-23 19:43 45.47254 60.73617 46966 ft 505 kts 160°
2026-04-23 19:43 45.41173 60.78291 46974 ft 515 kts 148°
2026-04-23 19:44 45.35855 60.85001 46987 ft 522 kts 140°
2026-04-23 19:44 45.30588 60.91696 46983 ft 522 kts 144°
2026-04-23 19:45 45.25232 60.98409 46984 ft 526 kts 141°
2026-04-23 19:45 45.19898 61.05240 46978 ft 527 kts 143°
2026-04-23 19:46 45.14542 61.11883 46981 ft 529 kts 142°
2026-04-23 19:46 45.09222 61.18664 46981 ft 530 kts 143°
2026-04-23 19:47 45.03767 61.25415 46976 ft 532 kts 143°
2026-04-23 19:47 44.98018 61.31521 46970 ft 524 kts 155°
2026-04-23 19:48 44.91461 61.35086 46964 ft 514 kts 171°
2026-04-23 19:48 44.84676 61.35860 46972 ft 504 kts 186°
2026-04-23 19:49 44.77921 61.34108 46976 ft 498 kts 200°
2026-04-23 19:49 44.71873 61.30225 46991 ft 494 kts 210°
2026-04-23 19:50 44.65899 61.25872 46990 ft 496 kts 208°
2026-04-23 19:50 44.59878 61.21542 46992 ft 496 kts 210°
2026-04-23 19:51 44.53876 61.17170 46987 ft 497 kts 209°
2026-04-23 19:51 44.47831 61.12845 46982 ft 497 kts 209°
2026-04-23 19:52 44.41817 61.08492 46975 ft 497 kts 209°
2026-04-23 19:52 44.35682 61.04703 46989 ft 499 kts 201°
2026-04-23 19:53 44.29299 61.01532 46984 ft 499 kts 203°
2026-04-23 19:53 44.22979 60.98293 46988 ft 500 kts 202°
2026-04-23 19:54 44.16486 60.95078 46981 ft 500 kts 202°
2026-04-23 19:54 44.10174 60.91875 46979 ft 500 kts 202°
2026-04-23 19:55 44.03839 60.88735 46974 ft 500 kts 202°
2026-04-23 19:55 43.97421 60.85510 46972 ft 500 kts 202°
2026-04-23 19:56 43.91044 60.82348 46966 ft 500 kts 202°
2026-04-23 19:56 43.84696 60.79185 46971 ft 500 kts 202°
2026-04-23 19:57 43.78293 60.76016 46966 ft 500 kts 202°
2026-04-23 19:57 43.71841 60.72822 46969 ft 500 kts 202°
2026-04-23 19:58 43.65482 60.69685 46972 ft 500 kts 202°
2026-04-23 19:58 43.59123 60.66554 46970 ft 500 kts 202°
2026-04-23 19:59 43.52739 60.63417 46967 ft 500 kts 202°
2026-04-23 19:59 43.46385 60.60303 46966 ft 500 kts 202°
2026-04-23 20:00 43.40013 60.57186 46962 ft 501 kts 202°
2026-04-23 20:00 43.33511 60.54014 46967 ft 501 kts 202°
2026-04-23 20:01 43.27129 60.50906 46964 ft 501 kts 202°
2026-04-23 20:01 43.20745 60.47805 46961 ft 501 kts 202°
2026-04-23 20:02 43.14349 60.44704 46965 ft 501 kts 202°
2026-04-23 20:02 43.07962 60.41616 46967 ft 502 kts 202°
2026-04-23 20:03 43.01511 60.38502 46965 ft 502 kts 202°
2026-04-23 20:03 42.95128 60.35429 46967 ft 501 kts 202°
2026-04-23 20:04 42.88373 60.32183 46977 ft 501 kts 202°
2026-04-23 20:04 42.81816 60.29041 46970 ft 502 kts 202°
2026-04-23 20:05 42.75231 60.25892 46970 ft 501 kts 202°
2026-04-23 20:05 42.68639 60.22747 46967 ft 501 kts 202°
2026-04-23 20:06 42.62081 60.19625 46964 ft 501 kts 202°
2026-04-23 20:06 42.55485 60.16491 46957 ft 501 kts 202°
2026-04-23 20:07 42.48897 60.13369 46954 ft 501 kts 202°
2026-04-23 20:07 42.42337 60.10267 46959 ft 501 kts 202°
2026-04-23 20:08 42.35739 60.07154 46956 ft 501 kts 202°
2026-04-23 20:08 42.29140 60.04047 46957 ft 501 kts 202°
2026-04-23 20:09 42.22582 60.00967 46951 ft 501 kts 202°
2026-04-23 20:09 42.15992 59.97878 46954 ft 501 kts 202°
2026-04-23 20:10 42.10510 59.95313 46965 ft 501 kts 202°
2026-04-23 20:10 42.02830 59.91732 46964 ft 501 kts 202°
2026-04-23 20:11 41.96215 59.88730 46938 ft 501 kts 202°
2026-04-23 20:11 41.89607 59.85706 46935 ft 501 kts 202°
2026-04-23 20:12 41.83050 59.82727 46929 ft 500 kts 202°
2026-04-23 20:12 41.76437 59.79738 46932 ft 501 kts 201°
2026-04-23 20:13 41.69619 59.77573 46948 ft 503 kts 197°
2026-04-23 20:13 41.62795 59.75444 46950 ft 503 kts 197°
2026-04-23 20:14 41.55990 59.73367 46955 ft 504 kts 197°
2026-04-23 20:14 41.49138 59.71259 46952 ft 504 kts 197°
2026-04-23 20:15 41.42299 59.69169 46945 ft 504 kts 197°
2026-04-23 20:15 41.35502 59.67092 46932 ft 504 kts 197°
2026-04-23 20:16 41.28802 59.64464 46953 ft 501 kts 201°
2026-04-23 20:16 41.22127 59.61737 46949 ft 501 kts 200°
2026-04-23 20:17 41.15453 59.59012 46943 ft 501 kts 201°
2026-04-23 20:17 41.08822 59.56308 46937 ft 501 kts 200°
2026-04-23 20:18 41.02164 59.53604 46939 ft 500 kts 200°
2026-04-23 20:18 40.95498 59.50895 46940 ft 500 kts 200°
2026-04-23 20:19 40.88854 59.48170 46936 ft 500 kts 201°
2026-04-23 20:19 40.82199 59.45458 46930 ft 500 kts 201°
2026-04-23 20:20 40.75581 59.42762 46929 ft 500 kts 201°
2026-04-23 20:20 40.68906 59.40051 46931 ft 500 kts 201°
2026-04-23 20:21 40.62280 59.37364 46928 ft 501 kts 201°
2026-04-23 20:21 40.55599 59.34661 46930 ft 500 kts 201°
2026-04-23 20:22 40.48965 59.31983 46921 ft 500 kts 201°
2026-04-23 20:22 40.42307 59.29299 46921 ft 500 kts 201°
2026-04-23 20:23 40.35640 59.26623 46924 ft 500 kts 201°
2026-04-23 20:23 40.29012 59.23981 46920 ft 500 kts 201°
2026-04-23 20:24 40.22360 59.21326 46901 ft 500 kts 201°
2026-04-23 20:24 40.19007 59.19992 46181 ft 502 kts 201°
2026-04-23 20:24 40.15652 59.18660 45530 ft 502 kts 201°
2026-04-23 20:24 40.12311 59.17333 44865 ft 502 kts 201°
2026-04-23 20:25 40.08972 59.16007 44173 ft 501 kts 201°
2026-04-23 20:25 40.05691 59.14709 43524 ft 492 kts 201°
2026-04-23 20:25 40.02453 59.13432 42885 ft 476 kts 201°
2026-04-23 20:25 39.99320 59.12193 42254 ft 462 kts 201°
2026-04-23 20:26 39.97299 59.11392 41856 ft 454 kts 201°
2026-04-23 20:26 39.94306 59.10207 41261 ft 443 kts 201°
2026-04-23 20:26 39.91385 59.09055 40685 ft 432 kts 201°
2026-04-23 20:26 39.88540 59.07934 40117 ft 423 kts 201°
2026-04-23 20:27 39.85780 59.06834 39572 ft 417 kts 201°
2026-04-23 20:27 39.83014 59.05725 39029 ft 415 kts 202°
2026-04-23 20:27 39.80251 59.04626 38461 ft 416 kts 201°
2026-04-23 20:27 39.77477 59.03530 37891 ft 418 kts 201°
2026-04-23 20:28 39.74674 59.02418 37333 ft 424 kts 201°
2026-04-23 20:28 39.71841 59.01294 36773 ft 428 kts 201°
2026-04-23 20:28 39.68986 59.00166 36205 ft 430 kts 201°
2026-04-23 20:28 39.66107 58.99029 35627 ft 431 kts 201°
2026-04-23 20:29 39.63228 58.97892 35058 ft 432 kts 201°
2026-04-23 20:29 39.60386 58.96769 34492 ft 433 kts 201°
2026-04-23 20:29 39.57490 58.95627 33916 ft 434 kts 201°
2026-04-23 20:29 39.54583 58.94483 33315 ft 434 kts 200°
2026-04-23 20:30 39.51694 58.93346 32729 ft 435 kts 200°
2026-04-23 20:30 39.45877 58.91057 31572 ft 437 kts 200°
2026-04-23 20:30 39.42961 58.89913 30987 ft 438 kts 200°
2026-04-23 20:31 39.40075 58.88782 30415 ft 439 kts 200°
2026-04-23 20:31 39.37155 58.87638 29809 ft 436 kts 200°
2026-04-23 20:31 39.34275 58.86511 29220 ft 430 kts 200°
2026-04-23 20:31 39.31415 58.85392 28648 ft 427 kts 200°
2026-04-23 20:32 39.28583 58.84284 28087 ft 424 kts 199°
2026-04-23 20:32 39.25766 58.83183 27527 ft 421 kts 199°
2026-04-23 20:32 39.22969 58.82092 26972 ft 418 kts 199°
2026-04-23 20:32 39.20179 58.81005 26416 ft 415 kts 199°
2026-04-23 20:33 39.17461 58.79946 25880 ft 412 kts 199°
2026-04-23 20:33 39.14727 58.78881 25335 ft 409 kts 199°
2026-04-23 20:33 39.12009 58.77824 24795 ft 406 kts 199°
2026-04-23 20:33 39.09305 58.76773 24258 ft 404 kts 199°
2026-04-23 20:34 39.06615 58.75729 23725 ft 401 kts 199°
2026-04-23 20:34 39.03954 58.74674 23148 ft 398 kts 199°
2026-04-23 20:34 39.01337 58.73597 22630 ft 393 kts 200°
2026-04-23 20:34 38.98723 58.72530 22110 ft 391 kts 199°
2026-04-23 20:35 38.96166 58.71509 21598 ft 389 kts 199°
2026-04-23 20:35 38.93565 58.70471 21082 ft 387 kts 199°
2026-04-23 20:35 38.91000 58.69435 20569 ft 384 kts 199°
2026-04-23 20:35 38.88458 58.68410 20069 ft 382 kts 199°
2026-04-23 20:36 38.85925 58.67395 19563 ft 379 kts 199°
2026-04-23 20:36 38.83407 58.66386 19057 ft 377 kts 199°
2026-04-23 20:36 38.80941 58.65397 18565 ft 375 kts 199°
2026-04-23 20:36 38.78540 58.64431 18076 ft 372 kts 199°
2026-04-23 20:37 38.76212 58.63070 17544 ft 367 kts 210°
2026-04-23 20:37 38.74000 58.61415 17081 ft 367 kts 211°
2026-04-23 20:37 38.71801 58.59817 16606 ft 365 kts 210°
2026-04-23 20:37 38.69583 58.58239 16123 ft 363 kts 210°
2026-04-23 20:38 38.67387 58.56654 15639 ft 362 kts 210°
2026-04-23 20:38 38.65209 58.55066 15164 ft 360 kts 210°
2026-04-23 20:38 38.63037 58.53492 14691 ft 358 kts 210°
2026-04-23 20:38 38.60859 58.51924 14222 ft 356 kts 210°
2026-04-23 20:39 38.58702 58.50369 13749 ft 354 kts 210°
2026-04-23 20:39 38.56581 58.48838 13260 ft 352 kts 210°
2026-04-23 20:39 38.54456 58.47305 12796 ft 349 kts 210°
2026-04-23 20:39 38.52335 58.45778 12335 ft 347 kts 210°
2026-04-23 20:40 38.50238 58.44270 11874 ft 344 kts 211°
2026-04-23 20:40 38.48160 58.42775 11414 ft 342 kts 211°
2026-04-23 20:40 38.46101 58.41294 10963 ft 332 kts 211°
2026-04-23 20:40 38.44175 58.39914 10547 ft 311 kts 211°
2026-04-23 20:41 38.42335 58.38594 10165 ft 293 kts 212°
2026-04-23 20:41 38.40609 58.37355 9877 ft 278 kts 212°
2026-04-23 20:41 38.38934 58.36150 9509 ft 274 kts 212°
2026-04-23 20:41 38.37296 58.34974 9153 ft 272 kts 212°
2026-04-23 20:42 38.35645 58.33791 8796 ft 272 kts 212°
2026-04-23 20:42 38.33995 58.32610 8441 ft 271 kts 211°
2026-04-23 20:42 38.32347 58.31431 8087 ft 271 kts 211°
2026-04-23 20:42 38.30705 58.30256 7732 ft 270 kts 211°
2026-04-23 20:43 38.29089 58.29101 7382 ft 268 kts 211°
2026-04-23 20:43 38.27464 58.27939 7029 ft 266 kts 211°
2026-04-23 20:43 38.25849 58.26786 6677 ft 265 kts 210°
2026-04-23 20:43 38.24243 58.25640 6333 ft 264 kts 210°
2026-04-23 20:44 38.22646 58.24501 5970 ft 263 kts 210°
2026-04-23 20:44 38.21051 58.23363 5620 ft 263 kts 210°
2026-04-23 20:44 38.19472 58.22237 5285 ft 263 kts 209°
2026-04-23 20:44 38.17871 58.21097 4938 ft 264 kts 209°
2026-04-23 20:45 38.16263 58.19952 4595 ft 264 kts 208°
2026-04-23 20:45 38.14665 58.18814 4237 ft 257 kts 208°
2026-04-23 20:45 38.13109 58.17788 3873 ft 255 kts 201°
2026-04-23 20:45 38.11366 58.17569 3505 ft 242 kts 174°
2026-04-23 20:46 38.09797 58.17885 3248 ft 218 kts 170°
2026-04-23 20:46 38.08324 58.18194 2979 ft 213 kts 170°
2026-04-23 20:46 38.06867 58.18487 2703 ft 211 kts 170°
2026-04-23 20:46 38.05543 58.19204 2379 ft 209 kts 141°
2026-04-23 20:47 38.04683 58.20624 2462 ft 198 kts 121°
2026-04-23 20:47 38.04092 58.22035 2487 ft 171 kts 118°
2026-04-23 20:47 38.03543 58.23334 2484 ft 163 kts 120°
2026-04-23 20:47 38.02984 58.24597 2296 ft 157 kts 120°
2026-04-23 20:48 38.02492 58.25708 2078 ft 133 kts 120°
2026-04-23 20:48 38.02061 58.26680 1894 ft 122 kts 118°
2026-04-23 20:48 38.01657 58.27591 1778 ft 120 kts 118°
2026-04-23 20:48 38.01243 58.28521 1623 ft 120 kts 119°
2026-04-23 20:49 38.00834 58.29442 1453 ft 120 kts 120°
2026-04-23 20:49 38.00426 58.30357 1303 ft 119 kts 121°
2026-04-23 20:49 38.00021 58.31258 1138 ft 118 kts 123°
2026-04-23 20:49 37.99615 58.32186 979 ft 122 kts 121°
2026-04-23 20:50 37.99194 58.33127 815 ft 124 kts 121°
2026-04-23 20:50 37.98781 58.34074 677 ft 123 kts 121°
2026-04-23 20:50 37.98407 58.34911 675 ft 85 kts 118°
2026-04-23 20:50 37.98157 58.35483 674 ft 67 kts 120°
2026-04-23 20:51 37.97945 58.35946 676 ft 53 kts 120°
2026-04-23 20:51 37.97774 58.36323 675 ft 46 kts 119°
2026-04-23 20:51 37.97685 58.36526 675 ft 43 kts 119°
2026-04-23 20:53 37.97646 58.36613 674 ft 41 kts 120°
2026-04-23 20:54 37.97511 58.36906 674 ft 33 kts 121°
2026-04-23 20:54 37.97414 58.37137 675 ft 27 kts 119°
2026-04-23 20:54 37.97356 58.37269 674 ft 11 kts 119°
2026-04-23 20:54 37.97364 58.37357 674 ft 10 kts 50°
2026-04-23 20:55 37.97404 58.37394 674 ft 6 kts 32°
2026-04-23 20:55 37.97437 58.37420 674 ft 5 kts 32°
2026-04-23 20:55 37.97483 58.37463 674 ft 11 kts 57°
2026-04-23 20:55 37.97468 58.37556 674 ft 8 kts 117°
2026-04-23 20:56 37.97430 58.37643 674 ft 15 kts 121°
2026-04-23 20:56 37.97425 58.37716 674 ft 10 kts 29°
2026-04-23 20:56 37.97504 58.37771 674 ft 13 kts 28°
2026-04-23 20:56 37.97573 58.37813 674 ft 10 kts 360°
2026-04-23 20:57 37.97616 58.37740 674 ft 7 kts 297°
2026-04-23 20:57 37.97622 58.37727 674 ft 0 kts 297°